This is the latest recevied weather packets stored in our database for station/object HK6RM-18. If no packets are shown the sender has not sent any weather packets the latest 10 day(s).
| Time | Temp. | Humidity | Pressure | Rain* | Wind** | Luminosity | Snow |
|---|---|---|---|---|---|---|---|
| 1777552194 | 18.89° C | 82% | 1014 hPa | 0 mm | - | - | - |
| 1777551293 | 15.56° C | 86% | 1014 hPa | 0 mm | - | - | - |
| 1777550389 | 16.11° C | 87% | 1014 hPa | 0 mm | - | - | - |
| 1777549488 | 16.67° C | 87% | 1014 hPa | 0 mm | - | - | - |
| 1777548586 | 15° C | 83% | 1014 hPa | 0 mm | - | - | - |
| 1777547686 | 15.56° C | 82% | 1014 hPa | 0 mm | - | - | - |
| 1777546785 | 16.11° C | 80% | 1014 hPa | 0 mm | - | - | - |
| 1777545882 | 16.67° C | 80% | 1014 hPa | 0 mm | - | - | - |
| 1777544982 | 17.22° C | 80% | 1014 hPa | 0 mm | - | - | - |
| 1777544078 | 17.78° C | 79% | 1014 hPa | 0 mm | - | - | - |
| 1777543177 | 18.33° C | 78% | 1014 hPa | 0 mm | - | - | - |
| 1777542274 | 17.22° C | 79% | 1014 hPa | 0 mm | - | - | - |
| 1777541374 | 17.78° C | 80% | 1014 hPa | 0 mm | - | - | - |
| 1777540473 | 18.33° C | 80% | 1013 hPa | 0 mm | - | - | - |
| 1777539571 | 17.22° C | 82% | 1013 hPa | 0 mm | - | - | - |
| 1777538670 | 17.78° C | 82% | 1013 hPa | 0 mm | - | - | - |
| 1777537770 | 18.33° C | 82% | 1014 hPa | 0 mm | - | - | - |
| 1777536869 | 17.22° C | 82% | 1013 hPa | 0 mm | - | - | - |
| 1777535969 | 17.78° C | 82% | 1013 hPa | 0 mm | - | - | - |
| 1777535068 | 18.33° C | 82% | 1014 hPa | 0 mm | - | - | - |
| 1777534167 | 17.22° C | 82% | 1014 hPa | 0 mm | - | - | - |
| 1777533266 | 17.78° C | 82% | 1014 hPa | 0 mm | - | - | - |
| 1777532366 | 18.33° C | 82% | 1014 hPa | 0 mm | - | - | - |
| 1777531465 | 17.22° C | 82% | 1014 hPa | 0 mm | - | - | - |
| 1777530562 | 17.78° C | 82% | 1015 hPa | 0 mm | - | - | - |
* Rain latest hour (hover to see other rain measurements)
** Current wind speed in m/s (hover to see current wind gust speed)